Weather History for Aurora, NE

Change the Weather History Date:

Monday, January 21, 2013

  Actual Average Record
Temperature  
Mean Temperature 16 °F -  
Max Temperature 22 °F 34 °F 63 °F (1986)
Min Temperature 11 °F 14 °F -9 °F (1984)
Degree Days  
Heating Degree Days 48    
Moisture  
Dew Point 8 °F    
Average Humidity 77    
Maximum Humidity 83    
Minimum Humidity 70    
Precipitation  
Precipitation 0.00 in - - ()
Sea Level Pressure  
Sea Level Pressure 30.34 in    
Wind  
Wind Speed 7 mph (North)    
Max Wind Speed 15 mph    
Max Gust Speed 16 mph    
Visibility 8 miles    
Events Snow    
Averages and records for this station are not official NWS values.
T = Trace of Precipitation, MM = Missing Value Source: NWS Daily Summary

Daily Weather History Graph

Daily Weather History Graph

Search for Another Location

Airport:

Trip Planner

Search our weather history database for the weather conditions in past years. The results will help you decide how hot, cold, wet, or windy it might be!

Date:

Astronomy

Jan. 21, 2013 Rise Set
Actual Time 7:51 AM CST 5:36 PM CST
Civil Twilight 7:21 AM CST 6:05 PM CST
Nautical Twilight 6:47 AM CST 6:39 PM CST
Astronomical Twilight 6:15 AM CST 7:12 PM CST
Moon 1:16 PM CST (1/21) 3:20 AM CST (1/21)
Length of Visible Light 10h 44m
Length of Day
9h 45m
Waxing Gibbous, 75% of the Moon is Illuminated
Jan 21
Waxing Gibbous
Jan 26
Full
Feb 3
Last Quarter
Feb 10
New
Feb 17
First Quarter

Hourly Weather History & Observations

Time (CST) Temp. Windchill Dew Point Humidity Pressure Visibility Wind Dir Wind Speed Gust Speed Precip Events Conditions
12:15 AM 20.3 °F 8.3 °F 13.1 °F 74% 30.36 in 10.0 mi West 11.5 mph - N/A   Clear
12:35 AM 20.7 °F 8.8 °F 13.3 °F 73% 30.36 in 10.0 mi West 11.5 mph - N/A   Mostly Cloudy
12:55 AM 20.8 °F 9.0 °F 13.5 °F 73% 30.35 in 10.0 mi West 11.5 mph - N/A   Mostly Cloudy
1:15 AM 20.5 °F 10.0 °F 13.3 °F 74% 30.35 in 10.0 mi West 9.2 mph - N/A   Scattered Clouds
1:35 AM 19.6 °F 8.9 °F 13.1 °F 76% 30.35 in 10.0 mi West 9.2 mph - N/A   Clear
1:55 AM 21.7 °F 10.8 °F 14.0 °F 72% 30.35 in 10.0 mi WNW 10.4 mph - N/A   Mostly Cloudy
2:15 AM 22.5 °F 11.7 °F 14.2 °F 71% 30.35 in 10.0 mi NNW 10.4 mph - N/A   Overcast
2:35 AM 21.9 °F 10.4 °F 13.8 °F 71% 30.35 in 10.0 mi NNW 11.5 mph 16.1 mph N/A   Overcast
2:55 AM 20.1 °F 8.1 °F 13.6 °F 76% 30.36 in 10.0 mi NNE 11.5 mph - N/A   Overcast
3:15 AM 19.4 °F 8.6 °F 13.3 °F 77% 30.36 in 10.0 mi North 9.2 mph - N/A   Overcast
3:35 AM 18.9 °F 7.2 °F 13.5 °F 79% 30.35 in 10.0 mi NNE 10.4 mph - N/A   Overcast
3:55 AM 18.5 °F 6.8 °F 13.6 °F 81% 30.36 in 10.0 mi NNE 10.4 mph - N/A   Overcast
4:15 AM 18.0 °F 8.7 °F 13.1 °F 81% 30.36 in 10.0 mi NNE 6.9 mph - N/A   Overcast
4:35 AM 17.6 °F 8.2 °F 13.1 °F 83% 30.36 in 10.0 mi North 6.9 mph - N/A Snow Light Snow
4:55 AM 17.4 °F 4.1 °F 12.6 °F 81% 30.36 in 7.0 mi North 12.7 mph - N/A Snow Light Snow
5:15 AM 15.4 °F 1.6 °F 10.8 °F 82% 30.37 in 10.0 mi NNE 12.7 mph - N/A Snow Light Snow
5:35 AM 15.3 °F 2.8 °F 10.2 °F 80% 30.37 in 10.0 mi NNE 10.4 mph - N/A Snow Light Snow
5:55 AM 15.1 °F 4.2 °F 10.0 °F 80% 30.37 in 10.0 mi North 8.1 mph - N/A   Overcast
6:15 AM 15.1 °F 2.5 °F 8.6 °F 76% 30.36 in 10.0 mi North 10.4 mph - N/A   Overcast
6:35 AM 14.9 °F 0.9 °F 7.9 °F 74% 30.36 in 10.0 mi North 12.7 mph - N/A   Overcast
6:55 AM 14.4 °F 0.2 °F 6.3 °F 70% 30.37 in 10.0 mi North 12.7 mph - N/A   Overcast
7:15 AM 14.4 °F 1.6 °F 7.5 °F 74% 30.36 in 10.0 mi North 10.4 mph - N/A Snow Light Snow
7:35 AM 13.6 °F 0.7 °F 5.9 °F 71% 30.35 in 10.0 mi North 10.4 mph - N/A Snow Light Snow
7:55 AM 13.6 °F -1.9 °F 5.7 °F 71% 30.36 in 10.0 mi North 15.0 mph - N/A   Overcast
8:15 AM 13.5 °F -0.2 °F 5.9 °F 72% 30.37 in 10.0 mi North 11.5 mph - N/A Snow Light Snow
8:35 AM 13.3 °F 3.0 °F 6.3 °F 74% 30.35 in 10.0 mi NNE 6.9 mph - N/A Snow Light Snow
8:55 AM 13.5 °F 3.3 °F 6.1 °F 72% 30.37 in 10.0 mi NNE 6.9 mph - N/A   Overcast
9:15 AM 13.1 °F 1.8 °F 6.1 °F 74% 30.38 in 7.0 mi NE 8.1 mph - N/A Snow Light Snow
9:35 AM 12.7 °F 2.4 °F 5.7 °F 74% 30.37 in 7.0 mi NNE 6.9 mph - N/A Snow Light Snow
9:55 AM 12.4 °F 2.0 °F 4.5 °F 71% 30.39 in 10.0 mi NNE 6.9 mph - N/A Snow Light Snow
10:15 AM 12.2 °F -0.2 °F 5.4 °F 74% 30.38 in 4.0 mi NNE 9.2 mph - N/A Snow Light Snow
10:35 AM 11.3 °F 3.3 °F 5.4 °F 77% 30.39 in 2.0 mi NNE 4.6 mph - N/A Snow Light Snow
10:55 AM 11.3 °F -0.4 °F 5.5 °F 78% 30.40 in 3.0 mi NNE 8.1 mph - N/A Snow Light Snow
11:15 AM 11.3 °F 1.9 °F 5.2 °F 76% 30.40 in 2.0 mi NNE 5.8 mph - N/A Snow Light Snow
11:35 AM 11.1 °F - 5.4 °F 78% 30.39 in 1.2 mi Calm Calm - N/A Snow Light Snow
11:55 AM 11.1 °F 1.7 °F 5.4 °F 78% 30.39 in 3.0 mi NNE 5.8 mph - N/A Snow Light Snow
12:15 PM 11.1 °F 4.9 °F 5.4 °F 78% 30.38 in 1.8 mi NNE 3.5 mph - N/A Snow Light Snow
12:35 PM 11.1 °F - 5.5 °F 78% 30.36 in 2.0 mi Calm Calm - N/A Snow Light Snow
12:55 PM 11.1 °F - 5.2 °F 77% 30.35 in 4.0 mi Calm Calm - N/A Snow Light Snow
1:15 PM 11.3 °F - 5.5 °F 78% 30.34 in 3.0 mi Calm Calm - N/A Snow Light Snow
1:35 PM 11.3 °F - 5.5 °F 78% 30.33 in 3.0 mi Calm Calm - N/A Snow Light Snow
1:55 PM 11.7 °F - 5.9 °F 78% 30.32 in 4.0 mi Calm Calm - N/A Snow Light Snow
2:15 PM 11.8 °F - 6.3 °F 78% 30.32 in 5.0 mi Calm Calm - N/A Snow Light Snow
2:35 PM 12.0 °F - 5.9 °F 76% 30.32 in 7.0 mi Calm Calm - N/A Snow Light Snow
2:55 PM 12.0 °F - 6.4 °F 78% 30.32 in 1.5 mi Calm Calm - N/A Snow Light Snow
3:15 PM 11.8 °F - 6.3 °F 78% 30.32 in 1.8 mi Calm Calm - N/A Snow Light Snow
3:35 PM 12.0 °F - 6.6 °F 79% 30.32 in 3.0 mi Calm Calm - N/A Snow Light Snow
3:55 PM 12.0 °F - 6.8 °F 80% 30.32 in 4.0 mi Calm Calm - N/A Snow Light Snow
4:15 PM 12.0 °F - 6.6 °F 79% 30.31 in 7.0 mi Calm Calm - N/A Snow Light Snow
4:35 PM 12.2 °F - 6.8 °F 79% 30.31 in 10.0 mi Calm Calm - N/A Snow Light Snow
4:55 PM 12.0 °F 4.1 °F 6.8 °F 80% 30.30 in 10.0 mi ENE 4.6 mph - N/A   Overcast
5:15 PM 12.2 °F 6.1 °F 6.8 °F 79% 30.30 in 10.0 mi ENE 3.5 mph - N/A   Overcast
5:35 PM 12.0 °F - 6.4 °F 78% 30.29 in 10.0 mi Calm Calm - N/A   Overcast
5:55 PM 12.2 °F - 6.8 °F 79% 30.30 in 10.0 mi Calm Calm - N/A   Overcast
6:15 PM 12.4 °F 4.6 °F 7.0 °F 79% 30.30 in 10.0 mi NE 4.6 mph - N/A   Overcast
6:35 PM 12.6 °F 6.5 °F 6.8 °F 78% 30.30 in 10.0 mi NNE 3.5 mph - N/A   Overcast
6:55 PM 12.6 °F - 6.8 °F 78% 30.29 in 10.0 mi Calm Calm - N/A   Overcast
7:15 PM 12.7 °F - 6.8 °F 77% 30.29 in 10.0 mi Calm Calm - N/A   Overcast
7:35 PM 12.7 °F 6.7 °F 7.3 °F 79% 30.29 in 10.0 mi NE 3.5 mph - N/A   Overcast
7:55 PM 12.6 °F - 6.8 °F 78% 30.29 in 10.0 mi Calm Calm - N/A   Overcast
8:15 PM 12.7 °F - 6.8 °F 77% 30.29 in 10.0 mi Calm Calm - N/A   Overcast
8:35 PM 12.9 °F - 7.2 °F 78% 30.29 in 10.0 mi Calm Calm - N/A   Overcast
8:55 PM 12.9 °F - 7.0 °F 77% 30.29 in 10.0 mi Calm Calm - N/A   Overcast
9:15 PM 13.1 °F - 7.2 °F 77% 30.27 in 10.0 mi Calm Calm - N/A   Mostly Cloudy
9:35 PM 13.1 °F 7.1 °F 7.5 °F 78% 30.27 in 10.0 mi SSE 3.5 mph - N/A   Scattered Clouds
9:55 PM 13.1 °F - 7.5 °F 78% 30.28 in 10.0 mi Calm Calm - N/A   Clear
10:15 PM 13.5 °F - 7.5 °F 77% 30.28 in 10.0 mi Calm Calm - N/A   Clear
10:35 PM 13.5 °F - 7.3 °F 77% 30.28 in 10.0 mi Calm Calm - N/A   Scattered Clouds
10:55 PM 13.8 °F - 7.7 °F 77% 30.29 in 10.0 mi Calm Calm - N/A   Mostly Cloudy
11:15 PM 13.8 °F - 6.8 °F 74% 30.29 in 10.0 mi Calm Calm - N/A   Overcast
11:35 PM 14.0 °F - 7.7 °F 76% 30.28 in 10.0 mi Calm Calm - N/A   Overcast
11:55 PM 14.0 °F - 7.0 °F 74% 30.27 in 10.0 mi Calm Calm - N/A   Overcast